ContactaLinksHome
    
DADES METEOROLÒGIQUES DE LES ÚLTIMES 24 HORES
 

Taire  Temperatura de l'aire  (ºC)
HumitatR  Humitat relativa de l'aire (%)
Pluja  Litres de pluja per metre cuadrat caiguts en 10 minuts (l/m²)
VelVent  Velocitat mitjana del vent (m/s)
DirVent  Direcció del vent  (º)
RadSolar  Intensitat de Radiació solar (w/m²)
PressAtm  Pressió atmosfèrica (mb)
  ***Dades sense verificar
DataTaireHumitatRPlujaVelVentDirVentRadSolarPressAtm
25/06/2018 1:50:0022.7620,03.133501015
25/06/2018 1:40:0022.8620,02.532801015
25/06/2018 1:30:0022.8610,02.432301015
25/06/2018 1:20:0022.9610,02.130401015
25/06/2018 1:10:0022.9620,01.830101015
25/06/2018 1:00:0022.9620,01.826901016
25/06/2018 0:50:0022.9630,01.534101016
25/06/2018 0:40:0022.8650,01.333501016
25/06/2018 0:30:0022.7650,00.728901016
25/06/2018 0:20:0022.6660,01.434801016
25/06/2018 0:10:0022.5690,00.634901016
25/06/2018 0:00:0022.6690,01.421001016
24/06/2018 23:50:0022.5680,01.220901016
24/06/2018 23:40:0022.4690,02.322401016
24/06/2018 23:30:0022.3680,02.421701016
24/06/2018 23:20:0022.3690,02.120501016
24/06/2018 23:10:0022.2700,01.821101016
24/06/2018 23:00:0022.2690,01.718201016
24/06/2018 22:50:0022.2690,01.818501016
24/06/2018 22:40:0022.2680,01.817801016
24/06/2018 22:30:0022.3680,01.918401016
24/06/2018 22:20:0022.2670,02.018501016
24/06/2018 22:10:0022.2670,01.817801016
24/06/2018 22:00:0022.3670,01.616101016
24/06/2018 21:50:0022.2660,01.718101016
24/06/2018 21:40:0022.2660,01.819401016
24/06/2018 21:30:0022.2660,01.720201016
24/06/2018 21:20:0022.1650,01.519601016
24/06/2018 21:10:0022.1650,01.319001016
24/06/2018 21:00:0022.2650,00.920801016
24/06/2018 20:50:0022.2650,01.420801016
24/06/2018 20:40:0022.2650,01.217601016
24/06/2018 20:30:0022.1640,00.816701016
24/06/2018 20:20:0022.1640,00.612701016
24/06/2018 20:10:0022.1640,00.812101016
24/06/2018 20:00:0022.2640,01.113701015
24/06/2018 19:50:0022.2640,01.113901015
24/06/2018 19:40:0022.2640,01.713301015
24/06/2018 19:30:0022.2640,01.514411015
24/06/2018 19:20:0022.2630,01.818241015
24/06/2018 19:10:0022.3640,01.915591015
24/06/2018 19:00:0022.3640,01.9150291015
24/06/2018 18:50:0022.3640,01.9159541015
24/06/2018 18:40:0022.4640,02.4149731015
24/06/2018 18:30:0022.4630,02.41591141015
24/06/2018 18:20:0022.4630,02.31751631015
24/06/2018 18:10:0022.4640,02.51831731015
24/06/2018 18:00:0022.4640,02.51851941015
24/06/2018 17:50:0022.4640,02.71792431015
24/06/2018 17:40:0022.3640,02.81841901015
24/06/2018 17:30:0022.3640,02.71841751015
24/06/2018 17:20:0022.3640,02.81811771015
24/06/2018 17:10:0022.3630,02.51931541015
24/06/2018 17:00:0022.3630,02.71851721015
24/06/2018 16:50:0022.4630,02.51812221015
24/06/2018 16:40:0022.3620,02.51662111015
24/06/2018 16:30:0022.3610,02.51602371016
24/06/2018 16:20:0022.4610,02.51702951016
24/06/2018 16:10:0022.4610,02.51632551016
24/06/2018 16:00:0022.4590,02.81715271016
24/06/2018 15:50:0022.4590,02.61654741016
24/06/2018 15:40:0022.4590,02.91535821016
24/06/2018 15:30:0022.5590,02.81455521016
24/06/2018 15:20:0022.5590,02.11515461016
24/06/2018 15:10:0022.4580,02.81476351016
24/06/2018 15:00:0022.4570,02.91425781016
24/06/2018 14:50:0022.5560,03.01447301016
24/06/2018 14:40:0022.4560,02.91567781016
24/06/2018 14:30:0022.5540,03.01557501016
24/06/2018 14:20:0022.5520,03.01568381016
24/06/2018 14:10:0022.5520,03.01598511016
24/06/2018 14:00:0022.4520,03.21618421016
24/06/2018 13:50:0022.4520,03.41518381016
24/06/2018 13:40:0022.4540,03.01559231016
24/06/2018 13:30:0022.3570,03.41479381016
24/06/2018 13:20:0022.3580,03.21567521017
24/06/2018 13:10:0022.4590,02.91619751017
24/06/2018 13:00:0022.3580,02.91468781017
24/06/2018 12:50:0022.3600,03.01548931017
24/06/2018 12:40:0022.3580,03.21629411017
24/06/2018 12:30:0022.1670,03.31479731017
24/06/2018 12:20:0022.2680,02.81579481017
24/06/2018 12:10:0022.2670,02.71549611017
24/06/2018 12:00:0022.2650,02.81519841017
24/06/2018 11:50:0022.3620,02.61539541017
24/06/2018 11:40:0022.4590,02.71398461017
24/06/2018 11:30:0022.3580,03.01449921017
24/06/2018 11:20:0022.2590,03.21488381017
24/06/2018 11:10:0022.2650,03.21469351017
24/06/2018 11:00:0022.3650,02.71259581017
24/06/2018 10:50:0022.3660,02.91329481017
24/06/2018 10:40:0022.4650,02.51349371017
24/06/2018 10:30:0022.5630,02.61209261017
24/06/2018 10:20:0022.5620,02.61299401017
24/06/2018 10:10:0022.6620,02.31228721017
24/06/2018 10:00:0022.6620,02.61098401017
24/06/2018 9:50:0022.8610,02.31117061017
24/06/2018 9:40:0022.8590,02.51097741017
24/06/2018 9:30:0023.0550,02.7865521017
24/06/2018 9:20:0023.0540,02.61105541017
24/06/2018 9:10:0022.9610,02.9724611017
24/06/2018 9:00:0022.6610,02.5964091017
24/06/2018 8:50:0022.6640,02.3954581017
24/06/2018 8:40:0022.5650,02.2973701017
24/06/2018 8:30:0022.4640,02.11003451017
24/06/2018 8:20:0022.5620,02.11044521017
24/06/2018 8:10:0022.4610,01.91014441017
24/06/2018 8:00:0022.4630,01.81103631017
24/06/2018 7:50:0022.3630,01.6953101017
24/06/2018 7:40:0022.4610,01.51102391017
24/06/2018 7:30:0023.5590,01.4962551017
24/06/2018 7:20:0023.6580,01.1843961017
24/06/2018 7:10:0023.3580,01.9754001017
24/06/2018 7:00:0023.1590,02.4753631017
24/06/2018 6:50:0023.1600,02.5733341017
24/06/2018 6:40:0023.1600,02.2693081017
24/06/2018 6:30:0023.2600,01.8682611017
24/06/2018 6:20:0023.3600,01.4781001017
24/06/2018 6:10:0023.2610,01.370691017
24/06/2018 6:00:0022.6600,01.064841017
24/06/2018 5:50:0022.3600,00.85751017
24/06/2018 5:40:0022.1600,00.82581017
24/06/2018 5:30:0022.0600,01.1328551017
24/06/2018 5:20:0021.9610,01.1339611017
24/06/2018 5:10:0021.7620,01.2337511017
24/06/2018 5:00:0021.8620,01.212371017
24/06/2018 4:50:0021.8640,02.032241017
24/06/2018 4:40:0021.9680,02.654131017
24/06/2018 4:30:0022.1690,03.17141017
24/06/2018 4:20:0022.4700,03.47411017
24/06/2018 4:10:0022.4670,02.27101017
24/06/2018 4:00:0022.2610,01.23601016
24/06/2018 3:50:0022.0590,01.533401016
24/06/2018 3:40:0021.8600,02.334101016
24/06/2018 3:30:0021.9600,02.933001016
24/06/2018 3:20:0022.0590,01.833801016
24/06/2018 3:10:0022.1590,02.434301016
24/06/2018 3:00:0022.2590,01.535201016
24/06/2018 2:50:0022.3580,01.434601016
24/06/2018 2:40:0022.4570,02.133001016
24/06/2018 2:30:0022.4570,01.932201016
24/06/2018 2:20:0022.5570,02.034301017
24/06/2018 2:10:0022.6570,02.134101017
24/06/2018 2:00:0022.6560,02.032201017

ÚLTIMES FOTOS WEBCAM
Imatges del Pont
ÚLTIMES DADES

25/06/2018  
3:50h Local  (1:50 GMT)
 
 Velocitat mitjana del Vent
   3,1 m/s
 Direcció del Vent
   335º
 Humitat Relativa
   62 %
 Temperatura Aparent
   22,2 ºC
 Pluja Acumulada
   0,0 l/m²
   Index UV    BAIX
 Temperatura de l'aigua    N/A
 Alçada d'ona    N/A
 Direcció d'ona    N/A
 Velocitat del corrent    N/A
 Direcció del corrent    N/A